Weather History for Silver City, NM

Change the Weather History Date:

Thursday, January 3, 2013

  Actual Average (KDMN) Record (KDMN)
Temperature  
Mean Temperature 24 °F 40 °F  
Max Temperature 33 °F 55 °F 69 °F (1997)
Min Temperature 14 °F 25 °F 4 °F (1967)
Degree Days  
Heating Degree Days 42    
Moisture  
Dew Point 15 °F    
Average Humidity 61    
Maximum Humidity 93    
Minimum Humidity 47    
Precipitation  
Precipitation 0.00 in 0.02 in 0.39 in (2005)
Month to date precipitation 0.05  
Year to date precipitation 0.05  
Sea Level Pressure  
Sea Level Pressure 30.19 in    
Wind  
Wind Speed 8 mph (SE)    
Max Wind Speed 16 mph    
Max Gust Speed 20 mph    
Visibility 10 miles    
Events      
T = Trace of Precipitation, MM = Missing Value Source: NWS Daily Summary

Daily Weather History Graph

Daily Weather History Graph

Search for Another Location

Airport:

Trip Planner

Search our weather history database for the weather conditions in past years. The results will help you decide how hot, cold, wet, or windy it might be!

Date:

Astronomy

Jan. 03, 2013 Rise Set
Actual Time 7:15 AM MST 5:19 PM MST
Civil Twilight 6:48 AM MST 5:46 PM MST
Nautical Twilight 6:17 AM MST 6:17 PM MST
Astronomical Twilight 5:47 AM MST 6:47 PM MST
Moon 11:34 PM MST (1/3) 10:50 AM MST (1/3)
Length of Visible Light 10h 58m
Length of Day
10h 04m
Waning Gibbous, 65% of the Moon is Illuminated
Jan 3
Waning Gibbous
Jan 4
Last Quarter
Jan 11
New
Jan 18
First Quarter
Jan 26
Full

Hourly Weather History & Observations

Time (MST) Temp. Windchill Dew Point Humidity Pressure Visibility Wind Dir Wind Speed Gust Speed Precip Events Conditions
12:15 AM 17.6 °F 9.3 °F 8.6 °F 68% 30.13 in 10.0 mi NNW 5.8 mph - N/A   Clear
12:35 AM 19.4 °F 11.5 °F 10.4 °F 68% 30.12 in 10.0 mi NW 5.8 mph - N/A   Clear
12:55 AM 17.6 °F 9.3 °F 10.4 °F 73% 30.12 in 10.0 mi NNW 5.8 mph - N/A   Clear
1:15 AM 17.6 °F 12.3 °F 10.4 °F 73% 30.13 in 10.0 mi NW 3.5 mph - N/A   Clear
1:35 AM 17.6 °F 9.3 °F 10.4 °F 73% 30.13 in 10.0 mi NNW 5.8 mph - N/A   Clear
1:55 AM 15.8 °F 6.1 °F 8.6 °F 73% 30.12 in 10.0 mi NNW 6.9 mph - N/A   Clear
2:15 AM 15.8 °F 8.6 °F 6.8 °F 68% 30.13 in 10.0 mi NNW 4.6 mph - N/A   Clear
2:35 AM 14.0 °F 8.2 °F 6.8 °F 73% 30.13 in 10.0 mi NNW 3.5 mph - N/A   Clear
2:55 AM 14.0 °F 5.1 °F 6.8 °F 73% 30.13 in 10.0 mi NNW 5.8 mph - N/A   Clear
3:15 AM 14.0 °F 5.1 °F 6.8 °F 73% 30.14 in 10.0 mi NNW 5.8 mph - N/A   Clear
3:35 AM 15.8 °F 6.1 °F 6.8 °F 68% 30.14 in 10.0 mi NNW 6.9 mph - N/A   Clear
3:55 AM 15.8 °F 8.6 °F 8.6 °F 73% 30.13 in 10.0 mi North 4.6 mph - N/A   Clear
4:15 AM 14.0 °F - 6.8 °F 73% 30.13 in 10.0 mi Calm Calm - N/A   Clear
4:35 AM 14.0 °F - 6.8 °F 73% 30.13 in 10.0 mi Calm Calm - N/A   Clear
4:55 AM 17.6 °F 8.2 °F 6.8 °F 63% 30.11 in 10.0 mi ENE 6.9 mph - N/A   Clear
5:15 AM 19.4 °F - 8.6 °F 63% 30.12 in 10.0 mi Calm Calm - N/A   Clear
5:35 AM 23.0 °F - 8.6 °F 54% 30.13 in 10.0 mi Calm Calm - N/A   Scattered Clouds
6:15 AM 23.0 °F 17.0 °F 8.6 °F 54% 30.15 in 10.0 mi West 4.6 mph - N/A   Scattered Clouds
6:35 AM 17.6 °F - 8.6 °F 68% 30.16 in 10.0 mi Calm Calm - N/A   Partly Cloudy
6:55 AM 19.4 °F 12.8 °F 8.6 °F 63% 30.16 in 10.0 mi SSE 4.6 mph - N/A   Partly Cloudy
7:15 AM 24.8 °F 16.1 °F 8.6 °F 50% 30.17 in 10.0 mi SSE 8.1 mph - N/A   Mostly Cloudy
7:55 AM 26.6 °F 20.0 °F 10.4 °F 51% 30.18 in 10.0 mi SE 5.8 mph - N/A   Overcast
8:15 AM 28.4 °F 21.2 °F 10.4 °F 47% 30.19 in 10.0 mi SE 6.9 mph - N/A   Overcast
8:35 AM 32.0 °F 21.6 °F 14.0 °F 48% 30.20 in 10.0 mi East 15.0 mph - N/A   Overcast
8:55 AM 32.0 °F 23.0 °F 14.0 °F 48% 30.21 in 10.0 mi SE 11.5 mph - N/A   Overcast
9:15 AM 32.0 °F 23.6 °F 14.0 °F 48% 30.21 in 10.0 mi ESE 10.4 mph 18.4 mph N/A   Overcast
9:35 AM 32.0 °F 22.5 °F 14.0 °F 48% 30.22 in 10.0 mi ESE 12.7 mph 19.6 mph N/A   Overcast
9:55 AM 32.0 °F 22.5 °F 15.8 °F 51% 30.22 in 10.0 mi ESE 12.7 mph - N/A   Overcast
10:15 AM 33.8 °F 24.3 °F 15.8 °F 48% 30.22 in 10.0 mi ESE 13.8 mph 19.6 mph N/A   Overcast
10:35 AM 33.8 °F 24.3 °F 15.8 °F 48% 30.23 in 10.0 mi ESE 13.8 mph - N/A   Overcast
10:55 AM 33.8 °F 24.3 °F 15.8 °F 48% 30.23 in 10.0 mi ESE 13.8 mph - N/A   Overcast
11:15 AM 33.8 °F 24.3 °F 15.8 °F 48% 30.22 in 10.0 mi ESE 13.8 mph 19.6 mph N/A   Overcast
11:35 AM 33.8 °F 23.5 °F 15.8 °F 48% 30.21 in 10.0 mi SE 16.1 mph - N/A   Overcast
11:55 AM 33.8 °F 24.3 °F 17.6 °F 52% 30.21 in 10.0 mi ESE 13.8 mph - N/A   Overcast
12:15 PM 32.0 °F 22.5 °F 17.6 °F 55% 30.20 in 10.0 mi ESE 12.7 mph - N/A   Overcast
12:35 PM 32.0 °F 22.1 °F 19.4 °F 60% 30.20 in 10.0 mi ESE 13.8 mph - N/A   Overcast
12:55 PM 33.8 °F 23.9 °F 19.4 °F 56% 30.19 in 10.0 mi ESE 15.0 mph - N/A   Overcast
1:15 PM 33.8 °F 24.8 °F 19.4 °F 56% 30.18 in 10.0 mi ESE 12.7 mph - N/A   Overcast
1:35 PM 33.8 °F 23.9 °F 19.4 °F 56% 30.17 in 10.0 mi ESE 15.0 mph - N/A   Overcast
1:55 PM 33.8 °F 24.8 °F 19.4 °F 56% 30.18 in 10.0 mi ESE 12.7 mph - N/A   Overcast
2:15 PM 33.8 °F 25.3 °F 19.4 °F 56% 30.18 in 10.0 mi ESE 11.5 mph 18.4 mph N/A   Overcast
2:35 PM 32.0 °F 22.5 °F 19.4 °F 60% 30.18 in 10.0 mi ESE 12.7 mph - N/A   Overcast
2:55 PM 33.8 °F 24.3 °F 19.4 °F 56% 30.18 in 10.0 mi ESE 13.8 mph - N/A   Overcast
3:15 PM 32.0 °F 22.5 °F 19.4 °F 60% 30.18 in 10.0 mi SE 12.7 mph - N/A   Overcast
3:55 PM 32.0 °F 24.2 °F 17.6 °F 55% 30.19 in 10.0 mi SSE 9.2 mph - N/A   Overcast
4:15 PM 32.0 °F 24.2 °F 17.6 °F 55% 30.19 in 10.0 mi SSE 9.2 mph - N/A   Overcast
4:35 PM 32.0 °F 23.0 °F 15.8 °F 51% 30.20 in 10.0 mi SE 11.5 mph - N/A   Overcast
5:15 PM 32.0 °F 23.0 °F 15.8 °F 51% 30.20 in 10.0 mi SE 11.5 mph - N/A   Overcast
5:35 PM 32.0 °F 22.5 °F 15.8 °F 51% 30.20 in 10.0 mi SE 12.7 mph - N/A   Overcast
5:55 PM 32.0 °F 24.2 °F 15.8 °F 51% 30.21 in 10.0 mi SE 9.2 mph - N/A   Overcast
6:15 PM 32.0 °F 23.0 °F 15.8 °F 51% 30.22 in 10.0 mi SE 11.5 mph - N/A   Overcast
6:35 PM 32.0 °F 24.2 °F 15.8 °F 51% 30.23 in 10.0 mi SE 9.2 mph - N/A   Overcast
6:55 PM 30.2 °F 20.2 °F 15.8 °F 55% 30.22 in 10.0 mi SE 12.7 mph - N/A   Overcast
7:15 PM 28.4 °F 19.1 °F 15.8 °F 59% 30.23 in 10.0 mi SSE 10.4 mph - N/A   Mostly Cloudy
7:35 PM 28.4 °F 19.7 °F 15.8 °F 59% 30.23 in 10.0 mi South 9.2 mph - N/A   Mostly Cloudy
7:55 PM 28.4 °F 20.4 °F 17.6 °F 64% 30.24 in 10.0 mi SSE 8.1 mph - N/A   Overcast
8:15 PM 28.4 °F 20.4 °F 17.6 °F 64% 30.25 in 10.0 mi SSE 8.1 mph - N/A   Overcast
8:35 PM 28.4 °F 22.2 °F 17.6 °F 64% 30.25 in 10.0 mi SSE 5.8 mph - N/A   Overcast
8:55 PM 28.4 °F 22.2 °F 17.6 °F 64% 30.25 in 10.0 mi SE 5.8 mph - N/A   Overcast
9:15 PM 28.4 °F 19.7 °F 17.6 °F 64% 30.25 in 10.0 mi SE 9.2 mph - N/A   Overcast
9:35 PM 28.4 °F 23.3 °F 17.6 °F 64% 30.26 in 10.0 mi SSW 4.6 mph - N/A   Overcast
9:55 PM 28.4 °F 21.2 °F 17.6 °F 64% 30.26 in 10.0 mi South 6.9 mph - N/A   Overcast
10:15 PM 26.6 °F 18.2 °F 19.4 °F 74% 30.26 in 10.0 mi South 8.1 mph - N/A   Overcast
10:35 PM 26.6 °F 16.8 °F 19.4 °F 74% 30.26 in 10.0 mi South 10.4 mph - N/A   Overcast
10:55 PM 26.6 °F 16.8 °F 21.2 °F 80% 30.26 in 10.0 mi South 10.4 mph - N/A   Overcast
11:15 PM 26.6 °F 17.5 °F 23.0 °F 86% 30.27 in 10.0 mi South 9.2 mph - N/A   Overcast
11:35 PM 26.6 °F 16.8 °F 23.0 °F 86% 30.27 in 5.0 mi South 10.4 mph - N/A   Overcast
11:55 PM 26.6 °F 16.8 °F 24.8 °F 93% 30.27 in 3.0 mi South 10.4 mph - N/A   Overcast